Location: Boston
(42.3580°N, 71.0600°W)
Time: 17:48:47
(UTC-04:00)

Tiangong 1 - Pass Details

Date: 12 October 2017
Orbit: 293 x 320 km, 42.8° (Epoch: 19 October)

Event Time Altitude Azimuth Distance (km) Brightness Sun altitude
Rises 19:43:43 0° 280° (W) 2,038 6.4 -18.7°
Reaches altitude 10° 19:45:43 10° 276° (W) 1,203 4.8 -19.1°
Enters shadow 19:47:52 46° 244° (WSW) 428 1.6 -19.5°
